This demonstration page uses our WeatherBlox Daily Observations layout. Learn more.

Left ArrowRight Arrow

41.86663, -103.66717

Hourly Observations for April 16, 2018

Temp ( °F °C ) Dew Point ( °F °C ) Humidity (%) Winds ( mph kmh ) Pressure ( in mb ) Visibility ( mi km ) Precip ( " mm )
12:53 am 00:53 Clear 32 undefined 29 -1.7 88 88 E 12 19 30.05 1018 10 16 N/A
1:53 am 01:53 Clear 32 undefined 28 -2.2 85 85 E 10 17 30.03 1017 10 16 N/A
2:53 am 02:53 Clear 32 undefined 27 -2.8 82 82 ESE 14 22 30.01 1016 10 16 N/A
3:53 am 03:53 Clear 31 -0.6 27 -2.8 85 85 E 12 19 29.98 1015 10 16 N/A
4:53 am 04:53 Clear 31 -0.6 26 -3.3 82 82 ESE 14 22 29.97 1015 10 16 N/A
5:53 am 05:53 Clear 29 -1.7 25 -3.9 85 85 ESE 13 20 29.97 1015 10 16 N/A
6:53 am 06:53 Sunny 30 -1.1 24 -4.4 79 79 ESE 14 22 29.96 1015 10 16 N/A
7:53 am 07:53 Sunny 34 1.1 26 -3.3 73 73 ESE 13 20 29.97 1015 10 16 N/A
8:53 am 08:53 Sunny 38 3.3 27 -2.8 65 65 ESE 16 26 29.96 1015 10 16 N/A
9:53 am 09:53 Sunny 43 6.1 30 -1.1 60 60 ESE 16 26 29.93 1013 10 16 N/A
10:53 am 10:53 Sunny 51 10.6 33 0.6 50 50 E 17 28 29.89 1012 10 16 N/A
11:53 am 11:53 Sunny 57 13.9 35 1.7 44 44 ESE 20 31 29.85 1011 10 16 N/A
12:53 pm 12:53 Sunny 59 15 35 1.7 41 41 ESE 24 39 29.82 1010 10 16 N/A
1:53 pm 13:53 Sunny 59 15 36 2.2 42 42 ESE 24 39 29.80 1009 10 16 N/A
2:53 pm 14:53 Sunny 60 15.6 36 2.2 41 41 ESE 24 39 29.79 1009 10 16 N/A
3:53 pm 15:53 Sunny 56 13.3 35 1.7 46 46 SE 23 37 29.78 1008 10 16 N/A
4:53 pm 16:53 Sunny 54 12.2 34 1.1 47 47 SE 20 31 29.78 1009 10 16 N/A
5:53 pm 17:53 Sunny 54 12.2 35 1.7 49 49 SE 17 28 29.77 1008 10 16 N/A
6:53 pm 18:53 Sunny 54 12.2 36 2.2 51 51 SE 15 24 29.75 1008 10 16 N/A
7:53 pm 19:53 Clear 51 10.6 34 1.1 52 52 SE 21 33 29.74 1007 10 16 N/A
8:53 pm 20:53 Clear 46 7.8 33 0.6 61 61 ESE 18 30 29.75 1007 10 16 N/A
9:53 pm 21:53 Clear 45 7.2 32 undefined 61 61 E 18 30 29.73 1007 10 16 N/A
10:53 pm 22:53 Clear 42 5.6 31 -0.6 65 65 E 15 24 29.70 1006 10 16 N/A
11:53 pm 23:53 Clear 41 5 30 -1.1 65 65 E 12 19 29.66 1004 10 16 N/A

Powered by AerisWeather